FALCON 9 R/B, 60424

Orbit data source: Space-Track

FALCON 9 R/B, 60424 is space debris in HEO originally from a launch on Mon, 12 Aug 2024 UTC launched from the Air Force Western Test Range (AFWTR). Debris objects in space refer to the collection of defunct objects orbiting the Earth. Examples of debris include non-operational satellites, rocket bodies, and fragments generated from explosions, collisions, or faulty payload assembly.

Loading next visibility...
Identifier
60424, 2024-143C
Orbit
HEO
Country
Flag of USUS
Related business
Manufacturer
SpaceX
Mission
Spacecraft
Bus & Motor
F9ST2, Unknown motor
Mass
~3,000 kg wet, ~3,000 kg dry
Launch date (UTC)
2024-08-12 (1 year ago)
Launch vehicle
Unknown
Launch site
Air Force Western Test Range (AFWTR)
Object type
Payload
Rocket body
Debris
Shape & HBR
Cyl, 7.8 m
Radar Cross Section
39.980 m², Large (>1 m²)

Expand to show TLE details & history
Last TLE update: 1 day ago

TLE from 1 day ago
0 FALCON 9 R/B
1 60424U 24143C   25310.36490551  .00002187  00000-0  53813-3 0  9995
2 60424  62.3400 124.9180 4715562 292.8816  24.8517  6.05157655 27213
Epoch: 2025-11-06T08:45Z
TLE epoch observation values (Epoch: 2025-11-06T08:45:27.836Z)
Latitude
-0.00008°
Longitude
-52.27551°
Altitude
1,986.946 km
Speed
7.999 km/s
True Right ascension
08h 19m 39s
True Declination
0° 00' 00"
Sunlit
Object was in daylight at epoch
Visualization orbit readout
Latitude
Unknown
Longitude
Unknown
Altitude
Unknown
Speed
Unknown
Apparent Right ascension
Unknown
Apparent Declination
Unknown
Sunlit
N/A
Visualization observer readout
Local Sidereal Time
12:11:14
Azimuth
Unknown
Elevation
Unknown
Doppler factor
Unknown
Orbital elements
Apogee altitude
12,338.859 km
Perigee altitude
343.237 km
Semi-major axis
12,719.185 km
Eccentricity
0.47156
Inclination
62.34°
RAAN
124.918°
Arg. of periapsis
292.8816°
True anomaly
67.20585°
Mean anomaly
24.8517°
Eccentric anomaly
43.42366°
Mean motion
1.51305 °/min
Orbital period
237.93 mins
BSTAR
0.00053813
Loading maneuver chart data...
Computing Atmospheric mass density...
Loading historical data...
Loading historical data...
Loading historical data...
Loading historical data...
Loading historical data...
Loading historical data...
Loading historical data...
Other satellites on launch #143 in the year 2024 (2024-08-12 UTC)

Documentation

Showing up to 5 results
|